#timestamp,LO_Frequency,Hit,StdDev 
1457542815.7,286046990.8,N
1457542835.5,286046989.0,N
1457542855.4,286046988.1,N
1457542875.2,286046989.6,N
1457542895.0,286046989.1,N
1457542895.9,286046989.1,N
1457542915.8,286046987.4,N
1457542935.6,286046991.2,N
1457542955.4,286046989.9,N
1457542975.3,286046986.0,Y
1457542995.1,286046995.2,P
1457542996.0,286046995.2,N
1457543015.8,286046999.5,N
1457543035.7,286046996.6,N
1457543055.5,286046997.7,N
1457543075.3,286046994.7,N
1457543095.2,286046995.7,N
1457543115.9,286046994.9,N
1457543135.7,286046996.7,N
1457543155.5,286046996.4,N
1457543175.4,286046992.6,Y
1457543195.2,286046993.3,P
1457543215.1,286046993.6,P
1457543216.0,286046993.6,P
1457543235.8,286046996.7,Y
1457543255.6,286047001.8,P
1457543275.5,286047004.0,N
1457543295.3,286047005.4,N
1457543315.1,286047004.7,N
1457543335.8,286047006.9,N
1457543355.7,286047010.6,N
1457543375.5,286047013.5,N
1457543395.3,286047014.8,N
1457543415.2,286047014.1,N
1457543435.9,286047016.1,N
1457543455.7,286047019.6,Y
1457543475.6,286047010.7,P
1457543495.4,286047009.9,P
1457543515.2,286047008.4,P
1457543535.1,286047003.5,Y
1457543536.0,286047003.5,P
1457543555.8,286046993.5,N
1457543575.6,286046995.5,N
1457543595.5,286046995.8,N
1457543615.3,286046993.3,N
1457543635.1,286046993.0,N
1457543655.9,286046991.0,N
1457543675.7,286046990.7,N
1457543695.5,286046991.4,N
1457543715.4,286046987.0,N
1457543735.2,286046991.6,N
1457543755.0,286046987.6,N
1457543755.9,286046987.6,N
1457543775.8,286046985.9,N
1457543795.6,286046984.0,N
1457543815.4,286046986.1,N
1457543835.2,286046993.1,N
1457543855.1,286046991.0,N
1457543856.0,286046991.0,N
1457543875.8,286046994.2,N
1457543895.6,286046997.8,N
1457543915.5,286046993.5,N
1457543935.3,286046991.3,N
1457543955.1,286046990.3,N
1457543975.9,286046986.7,N
1457543995.7,286046989.6,N
1457544015.5,286046991.9,N
1457544035.4,286046990.6,N
1457544055.2,286046992.0,N
1457544075.0,286046995.4,N
1457544075.9,286046995.4,N
1457544095.8,286046996.3,N
1457544115.6,286046997.3,N
1457544135.4,286046996.9,N
1457544155.2,286046999.3,N
1457544175.1,286046997.7,N
1457544176.0,286046997.7,N
1457544195.8,286046995.3,N
1457544215.6,286046995.1,N
1457544235.5,286046995.1,N
1457544255.3,286046995.4,N
1457544275.1,286046997.1,N
1457544295.9,286046997.3,N
1457544315.7,286047000.5,N
1457544335.5,286047002.6,N
1457544355.4,286047002.5,N
1457544375.2,286047001.7,N
1457544395.0,286047001.5,N
1457544395.9,286047001.5,N
1457544415.8,286047003.4,N
1457544435.6,286047002.9,N
1457544455.4,286047004.8,N
1457544475.3,286047010.0,N
1457544495.1,286047008.6,N
1457544496.0,286047008.6,N
1457544515.8,286047010.6,N
1457544535.7,286047008.2,N
1457544555.5,286047008.2,N
1457544575.3,286047012.8,N
1457544595.1,286047011.1,N
1457544615.9,286047010.9,N
1457544635.7,286047015.4,N
1457544655.5,286047012.8,N
1457544675.4,286047015.4,N
1457544695.2,286047015.2,N
1457544715.0,286047018.0,N
1457544715.9,286047018.0,N
1457544735.8,286047019.7,N
1457544755.6,286047021.9,Y
1457544775.4,286047014.8,P
1457544795.3,286047016.5,P
1457544815.1,286047014.3,P
1457544816.0,286047014.3,Y
1457544835.8,286047005.2,P
1457544855.7,286047004.1,N
1457544875.5,286047003.5,N
1457544895.3,286047004.1,N
1457544915.2,286047005.0,N
1457544935.9,286047010.5,Y
1457544955.7,286046998.3,P
1457544975.6,286047001.1,N
1457544995.4,286047000.2,N
1457545015.2,286046995.1,N
1457545035.1,286046994.4,N
1457545036.0,286046994.4,N
1457545055.8,286046992.0,N
1457545075.6,286046993.0,N
1457545095.5,286046991.1,N
1457545115.3,286046991.6,N
1457545135.1,286046993.2,N
1457545155.9,286046992.6,N
1457545175.7,286046993.1,N
1457545195.5,286046993.4,N
1457545215.3,286046992.4,N
1457545235.2,286046991.4,N
1457545255.0,286046991.5,N
1457545255.9,286046991.5,N
1457545275.7,286046987.5,Y
1457545295.6,286046992.2,P
1457545315.4,286046994.2,P
1457545335.2,286046993.6,P
1457545355.1,286046994.6,Y
1457545356.0,286046994.6,P
1457545375.8,286047001.2,N
1457545395.6,286047000.4,N
1457545415.5,286047002.4,N
1457545435.3,286046996.9,N
1457545455.1,286046998.4,N
1457545475.9,286046998.0,N
1457545495.7,286046997.0,N
1457545515.5,286046995.2,N
1457545535.4,286046997.3,N
1457545555.2,286046999.5,N
1457545575.0,286046998.4,N
1457545575.9,286046998.4,N
1457545595.8,286046999.6,N
1457545615.6,286046997.8,N
1457545635.4,286046997.8,N
1457545655.2,286046997.9,N
1457545675.1,286046995.0,N
1457545676.0,286046995.0,N
1457545695.8,286046999.4,N
1457545715.6,286046997.1,N
1457545735.5,286046997.7,N
1457545755.4,286046996.0,N
1457545775.2,286046996.4,N
1457545795.0,286046995.3,N
1457545795.9,286046995.3,N
1457545815.8,286046997.7,N
1457545835.6,286046995.8,N
1457545855.4,286046995.2,N
1457545875.3,286046992.3,Y
1457545895.1,286046993.4,P
1457545896.0,286046993.4,P
1457545915.8,286046996.4,N
1457545935.7,286046993.8,Y
1457545955.5,286047000.9,P
1457545975.3,286047000.0,N
1457545995.2,286046998.9,N
1457546015.9,286046996.9,N
1457546035.7,286046999.4,N
1457546055.6,286047001.4,N
1457546075.4,286047001.7,N
1457546095.2,286047000.7,N
1457546115.0,286047001.6,N
1457546116.0,286047001.6,N
1457546135.8,286047001.6,N
1457546155.6,286047001.7,N
1457546175.4,286047005.6,N
1457546195.3,286047001.3,N
1457546215.1,286046998.2,N
1457546235.8,286047002.5,N
1457546255.7,286047000.8,N
1457546275.5,286046999.3,N
1457546295.3,286046998.1,N
1457546315.2,286046998.1,N
1457546335.9,286047001.1,N
1457546355.7,286046998.1,N
1457546375.6,286046998.9,N
1457546395.4,286046998.1,N
